Weather History for KOKM - August, 2013

Change the Weather History Date:

Wednesday, August 7, 2013

  Actual Average (KMKO) Record (KMKO)
Temperature  
Mean Temperature 84 °F -  
Max Temperature 95 °F 90 °F 106 °F (2012)
Min Temperature 74 °F 67 °F 60 °F (1997)
Cooling Degree Days 19    
Growing Degree Days 34 (Base 50)    
Moisture  
Dew Point 73 °F    
Average Humidity 69    
Maximum Humidity 90    
Minimum Humidity 48    
Precipitation  
Precipitation 0.01 in - - ()
Sea Level Pressure  
Sea Level Pressure 29.84 in    
Wind  
Wind Speed 5 mph (ESE)    
Max Wind Speed 10 mph    
Max Gust Speed 16 mph    
Visibility 10 miles    
Events Thunderstorm    
Averages and records for this station are not official NWS values.
T = Trace of Precipitation, MM = Missing Value Source: NWS Daily Summary

Daily Weather History Graph

Daily Weather History Graph

Search for Another Location

Airport or City:

Trip Planner

Search our weather history database for the weather conditions in past years. The results will help you decide how hot, cold, wet, or windy it might be!

Date:

Astronomy

Aug. 07, 2013 Rise Set
Actual Time 6:36 AM CDT 8:21 PM CDT
Civil Twilight 6:09 AM CDT 8:49 PM CDT
Nautical Twilight 5:35 AM CDT 9:22 PM CDT
Astronomical Twilight 5:00 AM CDT 9:57 PM CDT
Moon 7:22 AM CDT (8/7) 8:34 PM CDT (8/7)
Length of Visible Light 14h 40m
Length of Day
13h 45m
New Moon, 1% of the Moon is Illuminated
Aug 7
New Moon
Aug 14
First Quarter
Aug 20
Full
Aug 28
Last Quarter
Sep 5
New

Hourly Weather History & Observations

Time (CDT) Temp. Heat Index Dew Point Humidity Pressure Visibility Wind Dir Wind Speed Gust Speed Precip Events Conditions
12:15 AM 83.1 °F 88.1 °F 71.4 °F 68% 29.82 in 10.0 mi SSE 8.1 mph - N/A   Clear
12:35 AM 83.1 °F 87.8 °F 71.2 °F 67% 29.82 in 10.0 mi South 6.9 mph - N/A   Clear
12:55 AM 83.3 °F 87.9 °F 70.7 °F 66% 29.82 in 10.0 mi South 4.6 mph - N/A   Clear
1:15 AM 83.3 °F 87.6 °F 70.5 °F 65% 29.82 in 10.0 mi South 5.8 mph - N/A   Clear
1:35 AM 82.6 °F 86.6 °F 70.3 °F 66% 29.81 in 10.0 mi South 5.8 mph - N/A   Clear
1:55 AM 81.7 °F 85.4 °F 70.2 °F 68% 29.82 in 10.0 mi SSE 3.5 mph - N/A   Clear
2:15 AM 80.8 °F 84.2 °F 70.2 °F 70% 29.82 in 10.0 mi Calm Calm - N/A   Clear
2:35 AM 80.2 °F 83.6 °F 70.3 °F 72% 29.81 in 10.0 mi Calm Calm - N/A   Clear
2:55 AM 79.0 °F - 70.7 °F 76% 29.82 in 10.0 mi Calm Calm - N/A   Clear
3:15 AM 79.7 °F - 70.0 °F 72% 29.83 in 10.0 mi Calm Calm - N/A   Mostly Cloudy
3:35 AM 81.5 °F 84.8 °F 69.1 °F 66% 29.83 in 10.0 mi Calm Calm - N/A   Scattered Clouds
3:55 AM 80.1 °F 82.9 °F 69.3 °F 69% 29.84 in 10.0 mi WNW 4.6 mph - N/A   Clear
4:15 AM 77.0 °F - 70.5 °F 80% 29.83 in 10.0 mi Calm Calm - N/A   Clear
4:35 AM 77.5 °F - 70.2 °F 78% 29.83 in 10.0 mi Calm Calm - N/A   Clear
4:55 AM 75.9 °F - 71.1 °F 85% 29.83 in 10.0 mi Calm Calm - N/A   Clear
5:15 AM 76.1 °F - 71.1 °F 84% 29.84 in 10.0 mi Calm Calm - N/A   Clear
5:35 AM 75.9 °F - 71.1 °F 85% 29.84 in 10.0 mi Calm Calm - N/A   Clear
5:55 AM 75.0 °F - 70.7 °F 86% 29.84 in 10.0 mi SE 3.5 mph - N/A   Clear
6:15 AM 74.3 °F - 71.1 °F 90% 29.83 in 10.0 mi Calm Calm - N/A   Clear
6:35 AM 74.7 °F - 71.1 °F 88% 29.83 in 10.0 mi SSE 3.5 mph - N/A   Clear
6:55 AM 75.4 °F - 70.3 °F 84% 29.83 in 10.0 mi Calm Calm - N/A   Clear
7:15 AM 76.1 °F - 70.3 °F 82% 29.83 in 10.0 mi Calm Calm - N/A   Clear
7:35 AM 77.5 °F - 70.9 °F 80% 29.83 in 10.0 mi North - - N/A   Clear
7:55 AM 79.0 °F - 70.9 °F 76% 29.84 in 10.0 mi Calm Calm - N/A   Clear
8:15 AM 79.9 °F - 71.6 °F 76% 29.87 in 10.0 mi Calm Calm - N/A   Clear
8:35 AM 80.2 °F 84.5 °F 72.7 °F 78% 29.87 in 10.0 mi East 4.6 mph - N/A   Clear
8:55 AM 82.6 °F 88.3 °F 73.0 °F 73% 29.87 in 10.0 mi SE 4.6 mph - N/A   Clear
9:15 AM 84.0 °F 89.3 °F 71.8 °F 66% 29.87 in 10.0 mi SE 6.9 mph - N/A   Clear
9:35 AM 84.7 °F 90.0 °F 71.4 °F 64% 29.87 in 10.0 mi SSE 6.9 mph - N/A   Clear
9:55 AM 86.7 °F 92.1 °F 71.1 °F 59% 29.87 in 10.0 mi South 9.2 mph - N/A   Clear
10:15 AM 87.1 °F 93.6 °F 72.0 °F 61% 29.86 in 10.0 mi SSE 10.4 mph - N/A   Clear
10:35 AM 87.6 °F 93.5 °F 71.4 °F 58% 29.88 in 10.0 mi South 8.1 mph - N/A   Clear
10:55 AM 88.5 °F 95.8 °F 72.3 °F 59% 29.87 in 10.0 mi South 5.8 mph - N/A   Clear
11:15 AM 89.1 °F 96.5 °F 72.5 °F 58% 29.87 in 10.0 mi SSE 9.2 mph - N/A   Scattered Clouds
11:35 AM 88.5 °F 95.8 °F 72.5 °F 59% 29.88 in 10.0 mi South 9.2 mph 16.1 mph N/A   Clear
11:55 AM 89.4 °F 97.3 °F 72.7 °F 58% 29.88 in 10.0 mi SE 6.9 mph - N/A   Clear
12:15 PM 90.5 °F 98.1 °F 72.5 °F 55% 29.88 in 10.0 mi ESE 5.8 mph - N/A   Clear
12:35 PM 90.1 °F 97.3 °F 72.1 °F 55% 29.87 in 10.0 mi SE 4.6 mph - N/A   Clear
12:55 PM 91.4 °F 98.9 °F 72.0 °F 53% 29.87 in 10.0 mi NE 3.5 mph - N/A   Clear
1:15 PM 92.5 °F 101.9 °F 73.6 °F 54% 29.86 in 10.0 mi East 8.1 mph - N/A   Clear
1:35 PM 92.3 °F 99.7 °F 71.8 °F 51% 29.86 in 10.0 mi East 6.9 mph - N/A   Clear
1:55 PM 92.5 °F 101.9 °F 73.4 °F 54% 29.85 in 10.0 mi East 6.9 mph - N/A   Clear
2:15 PM 92.8 °F 103.4 °F 74.7 °F 55% 29.85 in 10.0 mi East 8.1 mph - N/A   Clear
2:35 PM 92.8 °F 102.8 °F 74.1 °F 54% 29.86 in 10.0 mi ESE 9.2 mph - N/A   Scattered Clouds
2:55 PM 93.0 °F 103.2 °F 73.9 °F 54% 29.85 in 10.0 mi ESE 9.2 mph - N/A   Scattered Clouds
3:15 PM 94.1 °F 105.2 °F 74.7 °F 53% 29.85 in 10.0 mi SE 10.4 mph - N/A   Clear
3:35 PM 93.9 °F 102.1 °F 72.3 °F 49% 29.84 in 10.0 mi ESE 6.9 mph - N/A   Clear
3:55 PM 94.3 °F 103.5 °F 73.2 °F 50% 29.84 in 10.0 mi SE 8.1 mph - N/A   Scattered Clouds
4:15 PM 94.5 °F 102.6 °F 72.0 °F 48% 29.84 in 10.0 mi SE 8.1 mph - N/A   Scattered Clouds
4:35 PM 94.3 °F 102.9 °F 72.7 °F 49% 29.83 in 10.0 mi SE 6.9 mph - N/A   Scattered Clouds
4:55 PM 93.2 °F 102.4 °F 73.4 °F 52% 29.83 in 10.0 mi ESE 6.9 mph - N/A   Scattered Clouds
5:15 PM 92.8 °F 102.8 °F 73.8 °F 54% 29.83 in 10.0 mi North - - N/A   Scattered Clouds
5:35 PM 92.8 °F 103.4 °F 74.7 °F 55% 29.83 in 10.0 mi ESE 3.5 mph - N/A   Scattered Clouds
5:55 PM 92.8 °F 104.1 °F 74.8 °F 56% 29.83 in 10.0 mi ESE 3.5 mph - N/A   Mostly Cloudy
6:15 PM 92.7 °F 108.7 °F 78.4 °F 63% 29.82 in 10.0 mi East 4.6 mph - 0.01 in   Mostly Cloudy
6:35 PM 92.3 °F 106.9 °F 77.4 °F 62% 29.81 in 10.0 mi ENE 6.9 mph - 0.01 in   Clear
6:55 PM 90.5 °F 104.7 °F 77.7 °F 66% 29.81 in 10.0 mi East 5.8 mph - 0.01 in   Clear
7:15 PM 89.4 °F 102.9 °F 77.7 °F 68% 29.81 in 10.0 mi ENE 4.6 mph - N/A   Scattered Clouds
7:35 PM 88.9 °F 102.1 °F 77.5 °F 69% 29.81 in 10.0 mi NE 6.9 mph - N/A   Scattered Clouds
7:55 PM 88.0 °F 100.7 °F 77.4 °F 71% 29.81 in 10.0 mi NE 6.9 mph - N/A   Clear
8:15 PM 87.3 °F 98.8 °F 76.6 °F 71% 29.81 in 10.0 mi NE 6.9 mph - N/A   Clear
8:35 PM 86.0 °F 96.9 °F 76.8 °F 74% 29.82 in 10.0 mi NE 5.8 mph - N/A   Clear
8:55 PM 83.1 °F 92.9 °F 77.9 °F 84% 29.82 in 10.0 mi NNE 6.9 mph - N/A   Clear
9:15 PM 83.8 °F 94.3 °F 77.9 °F 82% 29.83 in 10.0 mi NNE 8.1 mph - N/A   Clear
9:35 PM 83.5 °F 92.9 °F 77.2 °F 81% 29.84 in 10.0 mi NE 10.4 mph - N/A   Clear
9:55 PM 82.9 °F 92.4 °F 77.5 °F 84% 29.84 in 10.0 mi NE 6.9 mph - N/A   Clear
10:15 PM 82.4 °F 90.9 °F 77.2 °F 84% 29.85 in 10.0 mi NE 8.1 mph - N/A   Clear
10:35 PM 81.7 °F 89.5 °F 77.0 °F 86% 29.86 in 10.0 mi NE 9.2 mph - N/A   Clear
10:55 PM 81.3 °F 88.5 °F 76.6 °F 86% 29.86 in 10.0 mi NE 8.1 mph - N/A   Clear
11:15 PM 80.8 °F 86.9 °F 75.9 °F 85% 29.85 in 10.0 mi NE 10.4 mph - N/A   Clear
11:35 PM 80.4 °F 86.3 °F 76.1 °F 87% 29.85 in 10.0 mi ENE 8.1 mph - N/A Thunderstorm Clear
11:55 PM 80.1 °F 85.5 °F 76.1 °F 88% 29.85 in 10.0 mi NE 10.4 mph - N/A   Clear